Weather History for KGSH - January, 2013

Change the Weather History Date:

Friday, January 4, 2013

  Actual Average Record
Temperature  
Mean Temperature 20 °F -  
Max Temperature 27 °F 32 °F 62 °F (1997)
Min Temperature 14 °F 17 °F -18 °F (1981)
Degree Days  
Heating Degree Days 44    
Moisture  
Dew Point 15 °F    
Average Humidity 75    
Maximum Humidity 84    
Minimum Humidity 69    
Precipitation  
Precipitation 0.00 in - - ()
Sea Level Pressure  
Sea Level Pressure 30.23 in    
Wind  
Wind Speed 13 mph (SW)    
Max Wind Speed 20 mph    
Max Gust Speed 25 mph    
Visibility 9 miles    
Events      
Averages and records for this station are not official NWS values.
T = Trace of Precipitation, MM = Missing Value Source: NWS Daily Summary

Daily Weather History Graph

Daily Weather History Graph

Search for Another Location

Airport or City:

Trip Planner

Search our weather history database for the weather conditions in past years. The results will help you decide how hot, cold, wet, or windy it might be!

Date:

Astronomy

Jan. 04, 2013 Rise Set
Actual Time 8:09 AM EST 5:26 PM EST
Civil Twilight 7:38 AM EST 5:58 PM EST
Nautical Twilight 7:03 AM EST 6:32 PM EST
Astronomical Twilight 6:30 AM EST 7:06 PM EST
Moon 12:06 AM EST (1/4) 11:46 AM EST (1/4)
Length of Visible Light 10h 19m
Length of Day
9h 17m
Waning Gibbous, 55% of the Moon is Illuminated
Jan 4
Waning Gibbous
Jan 4
Last Quarter
Jan 11
New
Jan 18
First Quarter
Jan 26
Full

Hourly Weather History & Observations

Time (EST) Temp. Windchill Dew Point Humidity Pressure Visibility Wind Dir Wind Speed Gust Speed Precip Events Conditions
12:53 AM 25.0 °F 13.6 °F 17.1 °F 72% 30.24 in 10.0 mi WSW 12.7 mph - N/A   Overcast
1:31 AM 23.0 °F 11.7 °F 15.8 °F 74% 30.21 in 9.0 mi WSW 11.5 mph - N/A   Scattered Clouds
1:53 AM 21.9 °F 10.4 °F 15.1 °F 75% 30.25 in 8.0 mi WSW 11.5 mph - N/A   Partly Cloudy
2:53 AM 19.9 °F 9.3 °F 14.0 °F 78% 30.25 in 7.0 mi WSW 9.2 mph - N/A   Clear
3:53 AM 19.0 °F 9.0 °F 14.0 °F 81% 30.24 in 7.0 mi SW 8.1 mph - N/A   Clear
4:53 AM 17.1 °F 5.8 °F 12.0 °F 81% 30.23 in 7.0 mi SSW 9.2 mph - N/A   Clear
5:53 AM 16.0 °F 2.9 °F 12.0 °F 84% 30.23 in 5.0 mi SW 11.5 mph - N/A   Clear
6:53 AM 15.1 °F -0.1 °F 10.9 °F 84% 30.23 in 7.0 mi SW 15.0 mph - N/A   Clear
8:53 AM 14.0 °F -1.4 °F 9.0 °F 80% 30.24 in 7.0 mi SW 15.0 mph - N/A   Clear
9:53 AM 16.0 °F 1.1 °F 8.1 °F 71% 30.26 in 10.0 mi WSW 15.0 mph - N/A   Clear
10:53 AM 18.0 °F 3.1 °F 10.0 °F 71% 30.26 in 10.0 mi WSW 16.1 mph - N/A   Clear
11:53 AM 19.0 °F 4.5 °F 10.9 °F 71% 30.24 in 10.0 mi SW 16.1 mph - N/A   Clear
12:53 PM 21.0 °F 5.7 °F 12.9 °F 71% 30.21 in 10.0 mi SW 19.6 mph - N/A   Clear
1:53 PM 23.0 °F 8.7 °F 15.1 °F 72% 30.19 in 10.0 mi SW 18.4 mph 25.3 mph N/A   Clear
2:53 PM 25.0 °F 11.3 °F 16.0 °F 69% 30.19 in 10.0 mi SW 18.4 mph 24.2 mph N/A   Clear
3:53 PM 26.1 °F 12.7 °F 18.0 °F 71% 30.20 in 10.0 mi SW 18.4 mph - N/A   Clear
4:53 PM 27.0 °F 15.2 °F 19.0 °F 72% 30.19 in 10.0 mi SW 15.0 mph - N/A   Clear
5:53 PM 26.1 °F 14.0 °F 19.0 °F 75% 30.20 in 10.0 mi SW 15.0 mph 24.2 mph N/A   Clear
6:53 PM 27.0 °F 15.2 °F 19.9 °F 75% 30.23 in 10.0 mi WSW 15.0 mph 24.2 mph N/A   Clear
7:53 PM 27.0 °F 16.7 °F 19.9 °F 75% 30.25 in 10.0 mi WSW 11.5 mph - N/A   Clear
8:53 PM 27.0 °F 16.1 °F 19.0 °F 72% 30.25 in 10.0 mi SW 12.7 mph - N/A   Clear
9:53 PM 26.1 °F 16.8 °F 19.0 °F 75% 30.26 in 10.0 mi SW 9.2 mph - N/A   Clear
10:53 PM 25.0 °F 15.5 °F 18.0 °F 75% 30.26 in 10.0 mi SW 9.2 mph - N/A   Clear
11:53 PM 24.1 °F 17.0 °F 18.0 °F 77% 30.27 in 10.0 mi SW 5.8 mph - N/A   Clear